Santiago de Cuba, Cuba

7:45 PM CST on November 20, 2017 (GMT -0500)
Antonio Maceo International

Weather History for MUCU - September, 2017

Change the Weather History Date:

Wednesday, September 13, 2017

  Actual Average Record
Temperature  
Mean Temperature 81 °F -  
Max Temperature 88 °F 85 °F 91 °F (2011)
Min Temperature 74 °F 73 °F 73 °F (2012)
Cooling Degree Days 16    
Growing Degree Days 31 (Base 50)    
Moisture  
Dew Point 72 °F    
Average Humidity 79    
Maximum Humidity 100    
Minimum Humidity 55    
Precipitation  
Precipitation 0.00 in - - ()
Sea Level Pressure  
Sea Level Pressure 29.93 in    
Wind  
Wind Speed 5 mph ()    
Max Wind Speed 9 mph    
Max Gust Speed -    
Visibility 5.7 miles    
Events      
Averages and records for this station are not official NWS values.
T = Trace of Precipitation, MM = Missing Value Source: Averaged Metar Reports

Daily Weather History Graph

Daily Weather History Graph

Search for Another Location

Airport or City:

Trip Planner

Search our weather history database for the weather conditions in past years. The results will help you decide how hot, cold, wet, or windy it might be!

Date:

Astronomy

Sep. 13, 2017 Rise Set
Actual Time 6:50 AM CDT 7:07 PM CDT
Civil Twilight 6:28 AM CDT 7:29 PM CDT
Nautical Twilight 6:02 AM CDT 7:55 PM CDT
Astronomical Twilight 5:36 AM CDT 8:21 PM CDT
Moon 12:22 AM CDT (9/13) 1:48 PM CDT (9/13)
Length of Visible Light 13h 01m
Length of Day
12h 17m
Last Quarter, 46% of the Moon is Illuminated
Sep 13
Last Quarter
Sep 20
New
Sep 27
First Quarter
Oct 5
Full
Oct 12
Last Quarter

Hourly Weather History & Observations

Time (CDT) Temp. Heat Index Dew Point Humidity Pressure Visibility Wind Dir Wind Speed Gust Speed Precip Events Conditions
12:51 AM 77.0 °F - 75.2 °F 94% 29.92 in 5.6 mi NNW 5.8 mph - N/A   Partly Cloudy
1:50 AM 77.0 °F - 75.2 °F 94% 29.92 in 5.6 mi North 4.6 mph - N/A   Partly Cloudy
2:00 AM 76 °F - 72 °F 85% 29.93 in 6 mi North 4.5 mph - -   Partly Cloudy
2:52 AM 77.0 °F - 75.2 °F 94% 29.89 in 5.6 mi North 4.6 mph - N/A   Partly Cloudy
3:50 AM 77.0 °F - 75.2 °F 94% 29.89 in 5.6 mi North 4.6 mph - N/A   Partly Cloudy
4:51 AM 75.2 °F - 75.2 °F 100% 29.89 in 5.6 mi NNE 5.8 mph - N/A   Partly Cloudy
5:00 AM 76 °F - 72 °F 85% 29.91 in 6 mi NNE 6.7 mph - -   Partly Cloudy
5:51 AM 75.2 °F - 75.2 °F 100% 29.92 in 5.6 mi North 5.8 mph - N/A   Partly Cloudy
6:50 AM 75.2 °F - 75.2 °F 100% 29.92 in 5.6 mi North 5.8 mph - N/A   Partly Cloudy
7:51 AM 78.8 °F - 75.2 °F 89% 29.95 in 5.6 mi NNW 5.8 mph - N/A   Partly Cloudy
8:00 AM 76 °F - 72 °F 85% 29.95 in 6 mi NNW 4.5 mph - -   Haze
8:50 AM 84.2 °F 89.6 °F 71.6 °F 66% 29.95 in 5.6 mi Variable 2.3 mph - N/A   Partly Cloudy
9:51 AM 86.0 °F 91.8 °F 71.6 °F 62% 29.95 in 5.6 mi Variable 3.5 mph - N/A   Partly Cloudy
10:52 AM 86.0 °F 91.8 °F 71.6 °F 62% 29.98 in 5.6 mi SW 5.8 mph - N/A   Scattered Clouds
11:00 AM 76 °F - 72 °F 85% 29.98 in 6 mi SW 6.7 mph - -   Haze
11:50 AM 87.8 °F 93.8 °F 71.6 °F 58% 29.98 in 5.6 mi SSW 6.9 mph - N/A   Scattered Clouds
12:51 PM 87.8 °F 95.6 °F 73.4 °F 62% 29.95 in 5.6 mi SW 8.1 mph - N/A   Scattered Clouds
1:53 PM 87.8 °F 93.8 °F 71.6 °F 58% 29.92 in 5.6 mi SW 9.2 mph - N/A   Scattered Clouds
2:00 PM 76 °F - 72 °F 85% 29.94 in 6 mi SW 8.9 mph - -   Haze
2:53 PM 87.8 °F 93.8 °F 71.6 °F 58% 29.92 in 5.6 mi SW 9.2 mph - N/A   Scattered Clouds
3:54 PM 87.8 °F 93.8 °F 71.6 °F 58% 29.89 in 5.6 mi SW 9.2 mph - N/A   Scattered Clouds
4:52 PM 87.8 °F 92.6 °F 69.8 °F 55% 29.89 in 5.6 mi WNW 8.1 mph - N/A   Scattered Clouds
5:00 PM 76 °F - 72 °F 85% 29.91 in 6 mi WNW 6.7 mph - -   Haze
5:50 PM 80.6 °F 83.9 °F 69.8 °F 70% 29.92 in 5.6 mi NE 8.1 mph - N/A   Scattered Clouds
6:53 PM 80.6 °F 84.6 °F 71.6 °F 74% 29.92 in 5.6 mi North 6.9 mph - N/A   Scattered Clouds
7:53 PM 78.8 °F - 71.6 °F 78% 29.95 in 5.6 mi NNW 3.5 mph - N/A   Scattered Clouds
8:00 PM 76 °F - 72 °F 85% 29.95 in 6 mi North 4.5 mph - -   Haze
8:51 PM 78.8 °F - 69.8 °F 74% 29.95 in 5.6 mi NNE 5.8 mph - N/A   Scattered Clouds
9:51 PM 78.8 °F - 71.6 °F 78% 29.95 in 5.6 mi North 5.8 mph - N/A   Partly Cloudy
10:51 PM 78.8 °F - 71.6 °F 78% 29.95 in 5.6 mi North 8.1 mph - N/A   Partly Cloudy
11:00 PM 76 °F - 72 °F 85% 29.97 in 6 mi North 8.9 mph - -   Haze
11:51 PM 78.8 °F - 71.6 °F 78% 29.95 in 5.6 mi North 8.1 mph - N/A   Partly Cloudy